This demonstration page uses our WeatherBlox Daily Observations layout. Learn more.

Left ArrowRight Arrow

36.17497, -115.13722

Hourly Observations for March 16, 2021

Temp ( °F °C ) Dew Point ( °F °C ) Humidity (%) Winds ( mph kmh ) Pressure ( in mb ) Visibility ( mi km ) Precip ( " mm )
12:53 am 00:53 Cloudy 43 6.1 29 -1.7 58 58 Calm 29.72 1006 10 16 0.00 0.00
1:53 am 01:53 Cloudy 43 6.1 27 -2.8 53 53 S 5 7 29.73 1007 10 16 0.00 0.00
2:53 am 02:53 Cloudy 42 5.6 28 -2.2 58 58 WSW 5 7 29.74 1007 10 16 0.00 0.00
3:53 am 03:53 Mostly Clear 42 5.6 28 -2.2 58 58 N 3 6 29.77 1008 10 16 0.00 0.00
4:53 am 04:53 Clear 41 5 29 -1.7 62 62 NNW 3 6 29.79 1009 10 16 0.00 0.00
5:53 am 05:53 Cloudy 43 6.1 29 -1.7 58 58 N 6 9 29.83 1010 10 16 0.00 0.00
6:53 am 06:53 Cloudy 41 5 29 -1.7 62 62 Calm 29.85 1011 10 16 0.00 0.00
7:53 am 07:53 Cloudy 42 5.6 30 -1.1 62 62 Calm 29.89 1012 10 16 0.00 0.00
8:53 am 08:53 Mostly Cloudy 44 6.7 29 -1.7 55 55 W 7 11 29.91 1013 10 16 0.00 0.00
9:53 am 09:53 Sunny 48 8.9 29 -1.7 48 48 Calm 29.93 1013 10 16 0.00 0.00
10:53 am 10:53 Sunny 50 10 30 -1.1 46 46 SSE 8 13 29.93 1014 10 16 0.00 0.00
11:53 am 11:53 Sunny 52 11.1 29 -1.7 41 41 SE 7 11 29.94 1014 10 16 0.00 0.00
12:53 pm 12:53 Sunny 55 12.8 29 -1.7 37 37 undefined N/A 29.94 1014 10 16 0.00 0.00
1:53 pm 13:53 Sunny 58 14.4 29 -1.7 33 33 ESE 6 9 29.92 1013 10 16 0.00 0.00
2:53 pm 14:53 Sunny 59 15 30 -1.1 33 33 VRB 3 6 29.91 1013 10 16 0.00 0.00
3:53 pm 15:53 Sunny 60 15.6 30 -1.1 32 32 SSW 8 13 29.92 1013 10 16 0.00 0.00
4:53 pm 16:53 Sunny 61 16.1 30 -1.1 31 31 SE 12 19 29.93 1014 10 16 0.00 0.00
5:53 pm 17:53 Sunny 60 15.6 30 -1.1 32 32 ESE 9 15 29.93 1014 10 16 0.00 0.00
6:53 pm 18:53 Clear 58 14.4 29 -1.7 33 33 E 9 15 29.96 1014 10 16 0.00 0.00
7:53 pm 19:53 Clear 57 13.9 29 -1.7 34 34 E 10 17 29.97 1015 10 16 0.00 0.00
8:53 pm 20:53 Clear 55 12.8 28 -2.2 35 35 E 8 13 30.00 1016 10 16 0.00 0.00
9:53 pm 21:53 Clear 54 12.2 29 -1.7 38 38 NE 7 11 30.02 1017 10 16 0.00 0.00
10:53 pm 22:53 Clear 53 11.7 29 -1.7 40 40 NE 7 11 30.03 1017 10 16 0.00 0.00
11:53 pm 23:53 Clear 52 11.1 28 -2.2 40 40 NE 7 11 30.05 1018 10 16 0.00 0.00

Powered by AerisWeather